CW8484 Weather Reports


Display with metric or nautical units.
time (UTC)temp
F
wind
direction
speed
MPH
gust
MPH
rain 1hr
in
rain 24hr
in
rain mn
in
humidity
%
barometer
mb
20260831120428 50 355 0.0 0.0 0.00 0.03 0.00 96 1019.9
20260831114407 48 355 0.0 0.0 0.00 0.03 0.00 95 1019.8
20260831113407 48 355 0.0 0.0 0.00 0.03 0.00 95 1019.7
20260831112408 48 355 0.0 0.0 0.00 0.03 0.00 95 1019.5
20260831111408 47 355 0.0 0.0 0.00 0.03 0.00 94 1019.5
20260831110407 47 355 0.0 0.0 0.00 0.03 0.00 94 1019.4
20260831105407 47 355 0.0 0.0 0.00 0.03 0.00 94 1019.2
20260831104407 47 355 0.0 0.0 0.00 0.04 0.00 94 1019.0
20260831103407 47 355 0.0 0.0 0.00 0.05 0.00 94 1018.9
20260831102407 48 355 0.0 0.0 0.00 0.06 0.00 94 1018.8
20260831101407 48 355 0.0 0.0 0.00 0.06 0.00 94 1018.9
20260831100407 47 355 0.0 0.0 0.00 0.06 0.00 94 1018.9
20260831095407 48 355 0.0 0.0 0.00 0.06 0.00 94 1018.8
20260831094429 48 355 0.0 0.0 0.00 0.06 0.00 94 1018.7
20260831093428 48 355 0.0 0.0 0.00 0.06 0.00 94 1018.7
20260831092407 48 355 0.0 0.0 0.00 0.06 0.00 94 1018.6
20260831091429 48 355 0.0 0.0 0.00 0.06 0.00 94 1018.5
20260831090407 48 355 0.0 0.0 0.00 0.06 0.00 94 1018.4
20260831085407 49 355 0.0 0.0 0.00 0.06 0.00 93 1018.4
20260831084407 49 355 0.0 0.0 0.00 0.06 0.00 94 1018.4
20260831083407 49 355 0.0 0.0 0.00 0.06 0.00 94 1018.5
20260831082407 49 355 0.0 0.0 0.00 0.06 0.00 93 1018.4
20260831081408 50 355 0.0 0.0 0.00 0.06 0.00 94 1018.4
20260831080407 50 355 0.0 0.0 0.00 0.06 0.00 93 1018.3
20260831075408 50 355 0.0 0.0 0.00 0.06 0.00 94 1018.2
20260831074407 50 355 0.0 0.0 0.00 0.06 0.00 94 1018.2
20260831073406 50 355 0.0 0.0 0.00 0.06 0.00 93 1018.2
20260831072407 51 355 0.0 0.0 0.00 0.06 0.00 93 1018.1
20260831071407 51 355 0.0 0.0 0.00 0.06 0.00 93 1018.2
20260831070407 51 355 0.0 0.0 0.00 0.06 0.00 93 1018.0
20260831065407 51 355 0.0 0.0 0.00 0.06 0.00 93 1018.0
20260831064407 52 355 0.0 0.0 0.00 0.06 0.00 93 1017.9
20260831063408 52 355 0.0 0.0 0.00 0.06 0.00 93 1017.9
20260831062407 52 355 0.0 0.0 0.00 0.06 0.00 92 1018.0
20260831061407 53 355 0.0 0.0 0.00 0.06 0.00 93 1018.0
20260831060407 53 355 0.0 0.0 0.00 0.06 0.00 93 1018.0
20260831055407 53 355 0.0 0.0 0.00 0.06 0.00 93 1018.0
20260831054428 53 355 0.0 0.0 0.00 0.06 0.00 93 1018.0
20260831053407 53 355 0.0 0.0 0.00 0.06 0.00 92 1018.1
20260831052407 54 355 0.0 0.0 0.00 0.06 0.00 92 1018.2
20260831051428 54 355 0.0 0.0 0.00 0.06 0.00 91 1018.2
20260831050407 54 355 0.0 0.0 0.00 0.06 0.00 91 1018.2
20260831045408 54 355 0.0 0.0 0.00 0.06 0.00 91 1018.1
20260831044428 55 355 0.0 0.0 0.00 0.06 0.00 91 1018.0
20260831043407 55 355 0.0 0.0 0.00 0.06 0.00 91 1017.9
20260831042407 55 355 0.0 0.0 0.00 0.06 0.00 91 1017.8
20260831041428 56 355 0.0 0.0 0.00 0.06 0.00 91 1017.8
20260831040428 56 355 0.0 0.0 0.00 0.06 0.00 91 1017.6
20260831035407 56 355 0.0 0.0 0.00 0.06 0.06 90 1017.6
20260831034428 57 355 0.0 0.0 0.00 0.06 0.06 90 1017.6
20260831033407 58 355 0.0 0.0 0.00 0.06 0.06 90 1017.5
20260831032407 58 355 0.0 0.0 0.00 0.06 0.06 90 1017.3
20260831031449 59 355 0.0 0.0 0.00 0.06 0.06 91 1017.2
20260831030406 59 355 0.0 0.0 0.00 0.06 0.06 91 1017.3
20260831025407 59 355 0.0 0.0 0.01 0.06 0.06 91 1017.2
20260831024407 60 355 0.0 0.0 0.01 0.06 0.06 90 1017.2
20260831023407 60 355 0.0 0.0 0.01 0.06 0.06 90 1017.1
20260831022407 60 355 0.0 0.0 0.01 0.06 0.06 90 1017.2
20260831021428 60 355 0.0 0.0 0.00 0.05 0.05 89 1017.1
20260831020407 61 355 0.0 0.0 0.00 0.05 0.05 88 1017.0
20260831015407 61 355 0.0 1.0 0.00 0.05 0.05 88 1017.0
20260831013407 63 354 0.0 3.0 0.00 0.05 0.05 88 1016.9
20260831012407 63 359 1.0 10.0 0.00 0.05 0.05 89 1016.7
20260831011407 63 319 0.0 4.0 0.00 0.05 0.05 90 1016.8
20260831010407 63 151 0.0 3.0 0.00 0.05 0.05 90 1016.5
20260831005406 63 180 0.0 2.0 0.00 0.05 0.05 91 1016.0
20260831004407 63 180 0.0 3.0 0.00 0.05 0.05 91 1016.0
20260831003407 63 180 0.0 3.0 0.00 0.05 0.05 90 1016.0
20260831002428 63 183 0.0 5.0 0.00 0.05 0.05 90 1015.6
20260831001407 63 199 0.0 1.0 0.00 0.05 0.05 90 1015.4
20260831000406 63 200 0.0 3.0 0.00 0.05 0.05 90 1015.3
20260830235429 63 200 0.0 2.0 0.00 0.05 0.05 89 1015.1
20260830234428 64 200 0.0 4.0 0.00 0.05 0.05 89 1015.0
20260830233407 64 201 0.0 3.0 0.00 0.05 0.05 89 1015.0
20260830232406 64 196 1.0 5.0 0.00 0.05 0.05 89 1015.0
20260830231407 64 253 0.0 7.0 0.00 0.05 0.05 88 1014.9
20260830230406 64 208 1.0 5.0 0.00 0.05 0.05 88 1014.9
20260830225407 65 187 0.0 7.0 0.00 0.05 0.05 88 1014.9
20260830224406 65 181 0.0 3.0 0.00 0.05 0.05 88 1014.9
20260830223449 65 178 0.0 4.0 0.00 0.05 0.05 88 1014.9
20260830222407 66 182 0.0 4.0 0.00 0.05 0.05 87 1014.9
20260830221407 66 179 1.0 6.0 0.00 0.05 0.05 87 1014.8
20260830220407 66 168 1.0 7.0 0.00 0.05 0.05 87 1014.7
20260830215406 66 172 1.0 5.0 0.00 0.05 0.05 87 1014.7
20260830214407 67 185 1.0 5.0 0.00 0.05 0.05 86 1014.7
20260830213407 67 165 0.0 4.0 0.00 0.05 0.05 86 1014.8
20260830212406 67 165 1.0 5.0 0.00 0.05 0.05 86 1014.7
20260830211407 67 181 1.0 6.0 0.00 0.05 0.05 87 1014.6
20260830210406 67 207 1.0 5.0 0.00 0.05 0.05 89 1014.6
20260830205428 65 179 1.0 5.0 0.00 0.05 0.05 89 1014.6
20260830204428 65 181 1.0 7.0 0.00 0.05 0.05 89 1014.7
20260830203406 65 185 1.0 4.0 0.00 0.05 0.05 89 1014.6
20260830202428 65 192 1.0 4.0 0.00 0.05 0.05 89 1014.7
20260830201406 65 227 0.0 5.0 0.00 0.05 0.05 89 1014.6
20260830200407 65 214 1.0 4.0 0.00 0.05 0.05 89 1014.8
20260830195406 65 222 0.0 6.0 0.00 0.05 0.05 89 1014.6
20260830194407 66 179 1.0 4.0 0.00 0.05 0.05 88 1014.7
20260830193406 66 179 0.0 8.0 0.00 0.05 0.05 88 1014.7
20260830192407 66 185 0.0 4.0 0.00 0.05 0.05 88 1014.6
20260830191406 66 185 0.0 3.0 0.00 0.05 0.05 89 1014.9
20260830190407 66 181 1.0 3.0 0.00 0.05 0.05 89 1015.1
20260830185406 65 186 0.0 4.0 0.02 0.05 0.05 88 1015.3
20260830184428 66 183 0.0 5.0 0.02 0.05 0.05 88 1015.5
20260830183406 66 175 1.0 4.0 0.01 0.04 0.04 87 1015.5
20260830182427 66 181 0.0 2.0 0.01 0.04 0.04 87 1015.6
20260830181407 66 178 0.0 6.0 0.00 0.03 0.03 86 1015.8
20260830180406 66 185 1.0 6.0 0.00 0.03 0.03 85 1016.0
20260830175428 66 215 0.0 8.0 0.00 0.03 0.03 84 1016.1
20260830174406 66 202 1.0 5.0 0.00 0.03 0.03 83 1016.0
20260830173407 66 189 1.0 8.0 0.00 0.03 0.03 84 1016.2
20260830172406 66 240 1.0 7.0 0.00 0.03 0.03 84 1016.2
20260830171406 66 208 1.0 5.0 0.00 0.03 0.03 83 1016.3
20260830170406 67 184 0.0 5.0 0.00 0.03 0.03 82 1016.2
20260830165427 68 169 2.0 9.0 0.00 0.03 0.03 79 1015.9
20260830164407 69 175 2.0 8.0 0.00 0.03 0.03 80 1016.0
20260830163427 69 184 2.0 15.0 0.00 0.03 0.03 79 1016.1
20260830162407 70 215 1.0 9.0 0.00 0.03 0.03 79 1016.1
20260830161406 70 146 1.0 7.0 0.00 0.03 0.03 80 1016.1
20260830160406 70 250 2.0 9.0 0.00 0.03 0.03 80 1016.2
20260830155406 67 175 1.0 9.0 0.00 0.03 0.03 83 1016.4
20260830154406 66 187 2.0 11.0 0.00 0.03 0.03 82 1016.4
20260830153406 66 202 3.0 9.0 0.00 0.03 0.03 83 1016.4
20260830152406 65 217 1.0 10.0 0.00 0.03 0.03 83 1016.6
20260830151406 65 163 1.0 11.0 0.00 0.03 0.03 83 1016.6
20260830150406 65 193 4.0 10.0 0.00 0.03 0.03 85 1016.9
20260830145406 64 185 1.0 8.0 0.00 0.03 0.03 85 1016.8
20260830144406 64 233 1.0 8.0 0.00 0.03 0.03 88 1016.6
20260830143427 63 181 0.0 10.0 0.00 0.03 0.03 87 1016.3
20260830142406 62 169 3.0 11.0 0.00 0.03 0.03 86 1016.6
20260830141406 62 182 2.0 8.0 0.00 0.03 0.03 87 1016.8
20260830140406 62 170 1.0 7.0 0.00 0.03 0.03 88 1016.7
20260830135407 62 172 1.0 8.0 0.00 0.03 0.03 88 1016.7
20260830134428 62 179 2.0 6.0 0.00 0.03 0.03 89 1016.8
20260830132407 61 168 1.0 6.0 0.00 0.03 0.03 89 1016.6
20260830131406 61 173 0.0 2.0 0.00 0.03 0.03 90 1016.4
20260830130406 60 187 1.0 6.0 0.00 0.03 0.03 90 1016.6
20260830125407 60 196 0.0 7.0 0.00 0.03 0.03 89 1016.9
20260830124406 60 178 1.0 4.0 0.00 0.03 0.03 89 1016.7
20260830123406 60 172 0.0 5.0 0.00 0.03 0.03 90 1016.8
20260830122406 60 185 0.0 6.0 0.00 0.03 0.03 89 1017.0
20260830121407 60 177 1.0 9.0 0.00 0.03 0.03 89 1016.9